STARLINK-11551, 62840

Orbit data source: Space-Track

STARLINK-11551, 62840 is a payload satellite owned by SpaceX/Seattle (US) in LEO that was launched on Mon, 27 Jan 2025 UTC via an FALCON 9 launch vehicle from the Air Force Eastern Test Range (AFETR). Payload-class satellites include a variety of spacecraft equipped with specific instruments for various scientific and technological missions. These include communications satellites like Starlink; space stations such as the ISS; scientific satellites like the Hubble; Earth observation satellites from companies like Planet Labs, Umbra, and HawkEye 360; GPS; miniature CubeSats for education and research; and military/defense satellites.

Loading next visibility...
Identifier
62840, 2025-019M
Orbit
LEO
Country
Flag of USUS
Related business
Manufacturer
SpaceX/Seattle
Mission
Operational Commercial Communications
Bus & Motor
STARLINK V2MD, Unknown motor
Mass
960 kg wet, ~910 kg dry
Launch date (UTC)
2025-01-27 (8 months ago)
Launch vehicle
FALCON 9
Launch site
Air Force Eastern Test Range (AFETR)
Object type
Payload
Rocket body
Debris
Shape & HBR
Box + 2 Pan, 14.5 m
Radar Cross Section
36.964 m², Large (>1 m²)

Expand to show TLE details & history
Last TLE update: 1 day ago

TLE from 1 day ago
0 STARLINK-11551
1 62840U 25019M   25260.00002315  .00126121  00000-0  97446-3 0  9999
2 62840  42.9998 272.8616 0001535 260.0877 133.2408 15.70768352  6011
Epoch: 2025-09-17T00:00Z
TLE epoch observation values (Epoch: 2025-09-17T00:00:02Z)
Latitude
22.08949°
Longitude
-57.6853°
Altitude
356.93 km
Speed
7.699 km/s
True Right ascension
19h 54m 01s
True Declination
21° 57' 46"
Sunlit
Object was in full shadow at epoch
Visualization orbit readout
Latitude
Unknown
Longitude
Unknown
Altitude
Unknown
Speed
Unknown
Apparent Right ascension
Unknown
Apparent Declination
Unknown
Sunlit
N/A
Visualization observer readout
Local Sidereal Time
19:14:39
Azimuth
Unknown
Elevation
Unknown
Doppler factor
Unknown
Orbital elements
Apogee altitude
359.716 km
Perigee altitude
357.647 km
Semi-major axis
6,736.818 km
Eccentricity
0.00015
Inclination
42.9998°
RAAN
272.8616°
Arg. of periapsis
260.0877°
True anomaly
133.25361°
Mean anomaly
133.2408°
Eccentric anomaly
133.24721°
Mean motion
3.92519 °/min
Orbital period
91.72 mins
BSTAR
0.00097446
Loading maneuver chart data...
Computing Atmospheric mass density...
Loading historical data...
Loading historical data...
Loading historical data...
Loading historical data...
Loading historical data...
Loading historical data...
Loading historical data...

Documentation

Showing up to 5 results
|